Terminal Aerodrome Forecast
Issued by NWS Twin Cities, MN

Home | Current Version | Previous Version | Graphics & Text | Print | Product List | Glossary On
Versions: 1 2 3 4 5 6 7 8 9 10 11 12 13 14 15 16 17 18 19 20 21 22 23 24
000
FTUS43 KMPX 191100
TAFMSP
TAF
KMSP 191139Z 1912/2018 30006KT P6SM SCT035 SCT200
     FM191900 31009KT P6SM SCT200
     FM200300 05004KT P6SM FEW200
     FM200800 VRB02KT 5SM BR FEW005
      TEMPO 2010/2014 2SM BR BKN005
     FM201400 13006KT P6SM SCT050=

USA.gov is the U.S. government's official web portal to all federal, state and local government web resources and services.